When you browse on this site, cookies collect data to enhance your experience and personalize the content and advertising you see.
Visit our Privacy Policy to learn more. By continuing to use the site, you agree to this use of cookies and data.
  • In Germany
  • List of Countries
  • For 7 days
  • Water Temperature
  • Weather Map
  • Weather Widgets
  • user-avatar
    Login

    Hourly Weather Escaldes-Engordany

    Today, 27 May, Wednesday

    Time Temperature Precipitation Wind Pressure Humidity
    00:00 +9°C° 0 mm 2 mps 644 mmHg 73%
    01:00 +9°C° 0 mm 2 mps 644 mmHg 69%
    02:00 +9°C° 0 mm 1 mps 644 mmHg 65%
    03:00 +9°C° 0 mm 1 mps 644 mmHg 62%
    04:00 +10°C° 0 mm 1 mps 644 mmHg 62%
    05:00 +11°C° 0 mm 1 mps 645 mmHg 63%
    06:00 +12°C° 0 mm 1 mps 645 mmHg 64%
    07:00 +15°C° 0 mm 1 mps 646 mmHg 57%
    08:00 +18°C° 0 mm 1 mps 647 mmHg 49%
    09:00 +20°C° 0 mm 1 mps 648 mmHg 42%
    10:00 +21°C° 0 mm 1 mps 648 mmHg 42%
    11:00 +21°C° 0 mm 2 mps 648 mmHg 42%
    12:00 +21°C° 0 mm 2 mps 648 mmHg 41%
    13:00 +20°C° 0.2 mm 2 mps 648 mmHg 50%
    14:00 +19°C° 0.2 mm 2 mps 648 mmHg 58%
    15:00 +18°C° 0.2 mm 2 mps 647 mmHg 67%
    16:00 +18°C° 0.7 mm 1 mps 647 mmHg 74%
    17:00 +16°C° 0.7 mm 1 mps 646 mmHg 81%
    18:00 +15°C° 0.7 mm 1 mps 646 mmHg 88%
    19:00 +14°C° 0.2 mm 1 mps 646 mmHg 91%
    20:00 +13°C° 0.2 mm 1 mps 646 mmHg 93%
    21:00 +11°C° 0.2 mm 0 mps 646 mmHg 96%
    22:00 +12°C° 0 mm 1 mps 646 mmHg 96%
    23:00 +12°C° 0 mm 1 mps 646 mmHg 95%

    Tomorrow, 28 May, Thursday

    Time Temperature Precipitation Wind Pressure Humidity
    00:00 +12°C° 0 mm 1 mps 646 mmHg 95%
    01:00 +11°C° 0 mm 1 mps 645 mmHg 94%
    02:00 +11°C° 0 mm 1 mps 645 mmHg 94%
    03:00 +11°C° 0 mm 1 mps 645 mmHg 93%
    04:00 +11°C° 0 mm 1 mps 645 mmHg 90%
    05:00 +12°C° 0 mm 1 mps 645 mmHg 87%
    06:00 +12°C° 0 mm 1 mps 645 mmHg 84%
    07:00 +14°C° 0 mm 1 mps 645 mmHg 72%
    08:00 +16°C° 0 mm 1 mps 646 mmHg 60%
    09:00 +19°C° 0 mm 1 mps 647 mmHg 47%
    10:00 +20°C° 0 mm 1 mps 647 mmHg 45%
    11:00 +21°C° 0 mm 1 mps 647 mmHg 43%
    12:00 +21°C° 0 mm 2 mps 646 mmHg 41%
    13:00 +20°C° 0.2 mm 2 mps 646 mmHg 47%
    14:00 +19°C° 0.2 mm 2 mps 645 mmHg 53%
    15:00 +19°C° 0.2 mm 2 mps 645 mmHg 59%
    16:00 +19°C° 0.5 mm 1 mps 644 mmHg 65%
    17:00 +18°C° 0.5 mm 1 mps 644 mmHg 71%
    18:00 +16°C° 0.5 mm 1 mps 643 mmHg 78%
    19:00 +14°C° 0 mm 1 mps 643 mmHg 82%
    20:00 +13°C° 0 mm 1 mps 642 mmHg 87%
    21:00 +11°C° 0 mm 1 mps 642 mmHg 92%
    22:00 +11°C° 0 mm 1 mps 642 mmHg 90%
    23:00 +11°C° 0 mm 1 mps 641 mmHg 89%

    Day after tomorrow, 29 May, Friday

    Time Temperature Precipitation Wind Pressure Humidity
    00:00 +10°C° 0 mm 1 mps 641 mmHg 87%
    01:00 +10°C° 0 mm 1 mps 641 mmHg 85%
    02:00 +10°C° 0 mm 1 mps 640 mmHg 83%
    03:00 +10°C° 0 mm 1 mps 640 mmHg 80%
    04:00 +11°C° 0 mm 1 mps 640 mmHg 78%
    05:00 +12°C° 0 mm 1 mps 640 mmHg 75%
    06:00 +13°C° 0 mm 1 mps 641 mmHg 73%
    07:00 +15°C° 0 mm 1 mps 641 mmHg 61%
    08:00 +18°C° 0 mm 1 mps 642 mmHg 49%
    09:00 +21°C° 0 mm 1 mps 642 mmHg 38%
    10:00 +22°C° 0 mm 1 mps 643 mmHg 36%
    11:00 +22°C° 0 mm 1 mps 643 mmHg 35%
    12:00 +23°C° 0 mm 2 mps 643 mmHg 33%
    13:00 +23°C° 0.1 mm 2 mps 642 mmHg 37%
    14:00 +23°C° 0.1 mm 2 mps 641 mmHg 41%
    15:00 +21°C° 0.1 mm 2 mps 641 mmHg 45%
    16:00 +20°C° 0.5 mm 2 mps 640 mmHg 55%
    17:00 +19°C° 0.5 mm 1 mps 640 mmHg 66%
    18:00 +18°C° 0.5 mm 1 mps 639 mmHg 76%
    19:00 +15°C° 0.2 mm 1 mps 639 mmHg 81%
    20:00 +14°C° 0.2 mm 1 mps 638 mmHg 87%
    21:00 +12°C° 0.2 mm 1 mps 638 mmHg 92%
    22:00 +12°C° 0 mm 1 mps 638 mmHg 92%
    23:00 +12°C° 0 mm 1 mps 638 mmHg 92%

    30 May, Saturday

    Time Temperature Precipitation Wind Pressure Humidity
    00:00 +11°C° 0 mm 1 mps 638 mmHg 92%
    01:00 +11°C° 0 mm 1 mps 637 mmHg 91%
    02:00 +10°C° 0 mm 1 mps 637 mmHg 91%
    03:00 +10°C° 0 mm 1 mps 637 mmHg 90%
    04:00 +11°C° 0 mm 1 mps 637 mmHg 86%
    05:00 +12°C° 0 mm 1 mps 638 mmHg 82%
    06:00 +12°C° 0 mm 1 mps 638 mmHg 77%
    07:00 +15°C° 0 mm 1 mps 639 mmHg 67%
    08:00 +18°C° 0 mm 1 mps 640 mmHg 56%
    09:00 +20°C° 0 mm 1 mps 641 mmHg 46%
    10:00 +21°C° 0 mm 1 mps 641 mmHg 44%
    11:00 +21°C° 0 mm 2 mps 641 mmHg 42%
    12:00 +21°C° 0 mm 2 mps 641 mmHg 41%
    13:00 +21°C° 0.2 mm 2 mps 641 mmHg 47%
    14:00 +20°C° 0.2 mm 2 mps 641 mmHg 53%
    15:00 +19°C° 0.2 mm 2 mps 640 mmHg 59%
    16:00 +19°C° 0.4 mm 1 mps 640 mmHg 66%
    17:00 +18°C° 0.4 mm 1 mps 639 mmHg 74%
    18:00 +16°C° 0.4 mm 1 mps 639 mmHg 82%
    19:00 +15°C° 0.1 mm 1 mps 639 mmHg 86%
    20:00 +13°C° 0.1 mm 1 mps 639 mmHg 90%
    21:00 +11°C° 0.1 mm 0 mps 638 mmHg 94%
    22:00 +12°C° 0 mm 1 mps 638 mmHg 94%
    23:00 +11°C° 0 mm 1 mps 638 mmHg 93%

    31 May, Sunday

    Time Temperature Precipitation Wind Pressure Humidity
    00:00 +11°C° 0 mm 1 mps 638 mmHg 92%
    01:00 +11°C° 0 mm 1 mps 638 mmHg 90%
    02:00 +10°C° 0 mm 1 mps 637 mmHg 88%
    03:00 +10°C° 0 mm 1 mps 637 mmHg 86%
    04:00 +11°C° 0 mm 1 mps 638 mmHg 81%
    05:00 +12°C° 0 mm 1 mps 638 mmHg 77%
    06:00 +13°C° 0 mm 1 mps 638 mmHg 72%
    07:00 +15°C° 0 mm 1 mps 639 mmHg 64%
    08:00 +18°C° 0 mm 1 mps 640 mmHg 55%
    09:00 +20°C° 0 mm 1 mps 641 mmHg 47%
    10:00 +21°C° 0 mm 1 mps 641 mmHg 44%
    11:00 +21°C° 0 mm 2 mps 641 mmHg 41%
    12:00 +23°C° 0 mm 2 mps 641 mmHg 38%
    13:00 +23°C° 0.1 mm 2 mps 641 mmHg 43%
    14:00 +21°C° 0.1 mm 2 mps 640 mmHg 48%
    15:00 +21°C° 0.1 mm 2 mps 640 mmHg 52%
    16:00 +21°C° 0.5 mm 1 mps 639 mmHg 60%
    17:00 +19°C° 0.5 mm 1 mps 639 mmHg 68%
    18:00 +16°C° 0.5 mm 0 mps 638 mmHg 75%
    19:00 +15°C° 0.2 mm 0 mps 638 mmHg 79%
    20:00 +14°C° 0.2 mm 0 mps 638 mmHg 84%
    21:00 +12°C° 0.2 mm 0 mps 638 mmHg 88%
    22:00 +13°C° 0.4 mm 1 mps 638 mmHg 88%
    23:00 +13°C° 0.4 mm 1 mps 637 mmHg 88%

    1 June, Monday

    Time Temperature Precipitation Wind Pressure Humidity
    00:00 +12°C° 0.4 mm 1 mps 637 mmHg 88%
    01:00 +12°C° 0.2 mm 1 mps 637 mmHg 87%
    02:00 +12°C° 0.2 mm 1 mps 637 mmHg 87%
    03:00 +12°C° 0.2 mm 1 mps 637 mmHg 86%
    04:00 +12°C° 0 mm 1 mps 637 mmHg 83%
    05:00 +13°C° 0 mm 1 mps 637 mmHg 81%
    06:00 +14°C° 0 mm 1 mps 638 mmHg 78%
    07:00 +16°C° 0.2 mm 1 mps 638 mmHg 73%
    08:00 +18°C° 0.2 mm 1 mps 639 mmHg 69%
    09:00 +20°C° 0.2 mm 1 mps 639 mmHg 64%
    10:00 +20°C° 1.2 mm 1 mps 639 mmHg 67%
    11:00 +20°C° 1.2 mm 1 mps 639 mmHg 70%
    12:00 +17°C° 1.2 mm 0 mps 639 mmHg 73%
    13:00 +18°C° 1.8 mm 1 mps 638 mmHg 78%
    14:00 +16°C° 1.8 mm 1 mps 638 mmHg 82%
    15:00 +15°C° 1.8 mm 1 mps 637 mmHg 87%
    16:00 +15°C° 0.7 mm 1 mps 637 mmHg 87%
    17:00 +15°C° 0.7 mm 1 mps 637 mmHg 88%
    18:00 +15°C° 0.7 mm 1 mps 637 mmHg 89%
    19:00 +14°C° 0.4 mm 1 mps 637 mmHg 90%
    20:00 +13°C° 0.4 mm 1 mps 637 mmHg 91%
    21:00 +12°C° 0.4 mm 1 mps 637 mmHg 93%
    22:00 +12°C° 0 mm 1 mps 637 mmHg 91%
    23:00 +12°C° 0 mm 1 mps 637 mmHg 90%
    Show more